Wind_Speed
7 6 5 5 5 5 5 5 5 6 7 8 9 10 11 12 13 14 15 16 16 17 17 18 19 19 20 21 21 22 22 23 24 25 25 26 25 25 24 23 22 20 18 16
7 6 5 5 4 4 4 4 5 6 7 8 9 10 11 12 12 13 14 15 16 16 17 17 18 19 20 20 21 22 22 23 23 24 25 25 26 26 25 24 23 22 20 18
6 5 5 4 3 2 2 3 4 5 6 7 8 10 11 11 12 13 14 14 15 16 16 17 18 18 19 20 21 21 22 22 23 23 24 25 26 26 26 25 25 23 22 20
6 5 3 2 1 1 1 2 3 4 5 7 8 9 10 11 12 13 14 14 15 16 16 17 17 18 19 19 20 21 21 22 22 23 23 24 25 25 26 26 25 24 23 21
5 5 4 3 2 2 2 3 4 5 6 7 9 10 11 12 12 13 14 15 16 16 17 17 17 18 18 19 19 20 21 21 21 21 22 23 24 24 25 25 25 24 24 23
6 6 6 5 5 5 5 5 6 7 8 9 10 11 12 13 13 14 14 15 16 16 17 17 18 18 18 19 19 19 20 20 21 21 21 21 22 23 24 24 24 23 23 22
8 8 7 7 7 8 8 8 9 9 10 11 12 12 13 14 14 15 15 16 16 17 17 17 18 18 18 19 19 19 19 20 20 20 20 20 21 21 22 23 22 22 21 21
11 11 10 10 10 11 11 11 12 12 12 13 13 14 14 15 15 16 16 17 17 18 18 18 18 18 19 19 19 19 19 19 19 19 19 20 19 20 20 21 21 20 20 20
14 13 13 13 13 14 14 14 14 14 14 15 15 15 15 16 16 17 17 18 18 19 19 19 19 19 19 19 19 19 19 19 19 19 19 19 19 19 18 19 19 19 18 18
17 16 16 16 16 16 16 16 16 16 16 16 17 17 17 18 18 19 19 20 20 20 20 20 20 20 20 20 20 20 20 20 20 20 20 19 19 18 18 17 17 17 17 17
19 19 19 19 19 18 18 18 18 18 18 18 19 19 20 20 20 21 21 22 22 22 22 22 22 22 22 21 21 21 21 20 20 20 20 20 19 19 18 17 17 17 16 16
21 21 21 21 21 21 20 20 20 20 20 21 21 22 22 22 23 23 23 24 24 25 25 25 25 24 23 23 23 22 22 22 21 21 20 20 20 20 19 19 18 17 16 16
23 23 23 23 23 22 22 22 22 23 23 23 24 24 25 25 26 26 27 27 28 28 27 27 27 27 26 25 25 24 24 24 24 23 22 22 21 21 20 20 19 18 17 17
25 25 25 25 25 25 25 25 25 26 26 27 27 27 28 29 29 30 30 30 30 30 30 30 30 29 29 28 28 27 27 27 26 25 25 24 24 23 22 22 21 20 20 19
28 28 28 28 28 28 28 28 28 29 29 30 30 31 31 32 33 33 33 33 32 32 32 32 32 31 31 30 30 29 29 29 29 28 28 27 27 26 26 25 24 23 22 21
31 31 30 30 30 31 31 31 32 33 33 33 34 34 34 35 35 35 35 35 35 34 34 34 34 33 33 33 32 32 31 31 32 31 31 31 30 30 29 29 28 27 26 25
34 34 34 34 34 34 35 35 36 36 36 37 37 37 37 37 37 37 37 36 36 36 35 35 35 35 35 35 34 34 34 34 34 34 34 34 34 34 33 33 32 31 30 29
37 37 37 37 37 38 39 39 39 39 39 39 39 39 39 38 38 38 38 37 37 36 36 36 36 36 36 36 36 36 36 36 36 36 36 37 37 37 37 37 36 36 35 34
40 40 40 41 41 41 42 42 42 41 41 41 41 40 40 39 39 38 37 37 37 37 37 37 38 38 37 37 37 37 37 38 38 38 39 39 40 40 40 41 41 40 40 39
43 43 43 44 44 44 44 43 43 43 43 43 42 42 41 40 39 38 37 37 37 37 37 37 38 38 38 38 39 40 40 40 41 41 41 41 42 43 43 44 44 45 45 44
45 45 45 45 45 45 45 45 45 44 44 43 43 43 41 40 39 39 38 38 38 38 38 38 39 39 40 41 42 42 43 43 44 44 44 45 45 46 47 47 48 49 49 49
47 47 47 47 47 47 46 46 45 45 44 44 43 42 41 40 40 39 39 39 39 40 41 41 42 42 43 44 44 45 46 46 47 48 48 49 50 50 51 51 52 53 53 54
48 48 48 48 47 47 46 46 45 44 44 43 42 41 40 40 40 40 40 41 41 42 43 43 44 45 46 47 48 48 49 50 51 52 52 53 54 55 55 56 57 57 58 58
47 47 47 46 46 45 45 44 44 44 43 43 42 41 40 40 41 41 42 43 43 44 45 46 47 48 49 50 51 51 52 53 54 55 56 56 57 58 58 59 60 61 62 62
47 47 46 46 45 44 44 43 43 43 42 42 41 41 41 41 42 43 44 44 45 46 48 49 50 51 52 53 54 55 56 57 57 58 59 59 59 59 60 60 61 62 63 64
46 45 45 45 44 43 43 42 41 41 40 40 40 41 42 43 44 44 45 46 48 49 50 51 52 53 54 55 56 57 58 58 59 59 60 60 60 61 61 61 61 62 62 63
43 43 43 42 42 42 41 41 41 41 41 41 42 43 44 44 45 46 47 48 49 50 51 52 53 54 55 56 57 57 58 58 59 59 59 59 59 59 59 59 59 59 60 60
Wind_Direction
149 145 135 123 113 100 83 67 55 47 40 33 28 25 23 21 20 20 20 20 19 18 17 17 16 16 16 16 16 16 16 17 18 19 19 19 19 18 18 17 16 15 14 10
151 147 139 127 114 102 86 69 57 47 38 31 25 21 18 17 15 15 14 14 13 13 13 12 13 13 13 13 12 13 13 14 15 17 18 19 20 19 20 20 20 19 19 17
154 153 149 139 123 106 80 55 38 29 23 19 16 14 12 11 10 9 7 7 7 8 8 8 8 7 7 8 8 9 11 12 13 15 16 18 20 21 21 21 22 22 22 22
168 171 175 179 160 109 27 13 9 6 3 2 1 1 2 3 3 2 1 0 1 2 3 3 3 3 4 5 6 8 10 11 12 13 15 16 18 20 21 22 23 25 26 27
195 202 209 219 247 287 304 317 329 337 341 344 346 348 350 352 353 353 353 354 355 355 356 356 357 358 359 1 2 4 6 8 9 11 12 14 16 17 20 21 23 25 27 29
219 228 236 246 262 275 287 299 310 318 324 328 331 335 338 340 342 344 346 347 349 350 350 350 351 352 353 355 357 359 1 3 5 7 8 10 12 14 16 19 21 24 26 28
235 240 246 256 265 274 282 292 300 306 312 316 320 323 326 329 332 335 337 339 341 342 343 344 345 346 347 349 351 352 354 356 359 1 3 5 7 10 13 15 18 21 25 27
243 248 253 262 269 275 281 287 293 298 302 307 310 314 317 320 323 326 329 331 333 334 335 337 338 339 340 342 344 345 347 349 351 354 356 358 1 4 7 10 14 17 20 23
250 254 259 264 269 275 280 285 289 293 297 301 305 308 311 314 317 319 321 323 325 327 328 330 331 332 334 335 337 338 340 341 343 345 347 349 352 355 358 2 6 9 13 15
253 257 261 266 270 275 279 283 287 290 294 298 301 304 307 310 312 314 315 317 318 320 321 323 325 326 327 329 331 332 333 334 335 337 339 340 342 344 348 351 354 358 1 5
256 258 262 265 270 274 277 281 284 287 291 294 297 300 303 306 308 310 311 312 313 314 315 316 317 318 320 322 324 325 326 327 329 330 330 332 333 334 335 338 341 344 347 350
256 259 263 266 269 272 275 278 281 285 288 291 294 297 300 302 304 306 308 308 309 309 309 310 310 311 313 314 315 316 317 318 319 320 322 323 324 325 326 326 328 330 332 335
258 260 263 266 269 272 275 278 281 284 287 290 292 295 297 300 302 303 304 304 304 304 304 304 304 305 306 307 307 307 308 309 310 311 312 313 314 315 316 317 317 319 320 322
259 261 263 266 269 272 274 277 280 283 285 288 290 292 295 297 299 299 300 300 300 300 300 300 301 301 301 302 301 301 301 301 302 303 304 305 305 306 306 307 307 308 309 310
259 261 264 266 269 272 274 277 279 282 284 286 288 290 292 294 295 296 296 297 297 297 297 297 298 298 298 298 298 298 297 297 297 297 297 297 298 298 298 299 299 299 299 300
259 262 264 267 269 271 274 277 279 282 284 285 287 289 290 291 292 293 293 294 295 295 295 295 295 295 295 296 296 295 294 293 293 293 292 292 291 291 291 292 292 292 292 291
259 261 263 265 268 271 274 276 279 281 283 284 286 288 290 290 291 291 291 292 292 292 292 292 292 293 293 294 294 292 291 290 290 290 289 288 287 287 286 286 286 285 285 285
258 260 263 265 267 270 273 275 278 280 282 284 286 288 289 290 291 291 291 290 290 290 289 289 290 291 292 293 293 292 291 290 289 288 287 286 285 284 283 282 281 280 280 279
257 259 261 264 266 269 272 275 277 278 280 283 285 286 288 289 290 290 290 289 289 290 290 290 291 292 293 293 293 293 292 292 291 289 288 286 284 282 281 279 278 277 276 276
257 259 261 264 266 269 271 274 275 277 279 282 284 285 287 288 288 288 288 288 289 290 290 291 292 293 294 294 295 295 294 294 293 291 290 288 286 284 282 279 277 275 274 272
256 258 261 263 266 268 271 273 274 276 278 281 283 285 285 285 286 286 287 287 288 289 290 291 292 293 293 294 295 295 295 294 293 292 291 289 287 285 282 280 278 275 273 271
255 258 260 262 265 267 269 271 273 275 278 280 282 282 282 282 283 284 285 287 288 290 291 292 293 294 295 295 295 295 295 294 294 293 292 290 288 286 283 281 278 276 273 271
255 257 259 261 263 266 268 269 272 274 276 278 279 280 280 280 282 284 285 287 289 291 292 294 295 296 296 297 297 296 296 295 294 293 292 290 288 286 284 281 278 276 273 271
255 256 258 260 262 264 266 268 270 272 274 276 277 277 279 280 282 284 286 289 291 292 294 296 297 297 298 298 297 297 297 296 295 294 293 292 290 288 285 282 280 277 274 271
255 256 257 258 260 263 265 266 269 271 272 274 275 276 278 280 283 286 288 290 292 294 295 297 297 298 298 298 298 298 298 298 297 296 295 294 292 290 288 285 282 278 275 272
255 255 256 258 259 261 263 265 267 269 271 273 274 277 279 282 284 287 289 292 293 295 296 297 298 299 299 300 300 300 300 300 299 298 298 296 295 293 291 288 285 282 278 274
254 254 255 256 257 259 261 264 267 269 271 273 276 279 281 284 286 289 291 293 294 296 297 299 300 300 301 302 302 302 302 302 301 301 300 299 298 296 294 292 289 286 283 278
Height
5879 5879 5880 5880 5880 5880 5879 5879 5878 5877 5876 5874 5872 5870 5867 5865 5862 5859 5856 5853 5849 5846 5842 5838 5834 5830 5826 5822 5817 5813 5808 5803 5798 5793 5788 5782 5777 5771 5765 5760 5754 5749 5744 5740
5879 5879 5880 5880 5880 5880 5879 5879 5878 5877 5876 5874 5872 5870 5867 5865 5862 5859 5856 5853 5850 5846 5843 5839 5835 5831 5827 5823 5819 5814 5809 5805 5800 5795 5790 5784 5779 5773 5767 5762 5756 5751 5746 5741
5879 5879 5880 5880 5880 5880 5879 5879 5878 5877 5876 5874 5872 5870 5868 5865 5862 5860 5857 5854 5850 5847 5843 5840 5836 5832 5828 5824 5820 5815 5811 5806 5801 5797 5792 5787 5781 5776 5770 5764 5759 5753 5748 5743
5878 5879 5880 5882 5879 5879 5879 5878 5877 5876 5875 5873 5871 5869 5867 5865 5862 5859 5857 5853 5850 5847 5843 5840 5836 5833 5829 5825 5820 5816 5812 5807 5803 5798 5793 5789 5784 5778 5773 5767 5762 5756 5751 5746
5877 5878 5878 5879 5878 5878 5877 5877 5876 5875 5874 5872 5870 5868 5866 5864 5861 5859 5856 5853 5850 5846 5843 5840 5836 5833 5829 5825 5821 5817 5813 5808 5804 5800 5795 5791 5786 5781 5775 5770 5765 5760 5755 5750
5876 5876 5877 5878 5877 5876 5877 5876 5875 5873 5872 5870 5869 5867 5866 5863 5860 5858 5855 5852 5849 5846 5842 5839 5836 5832 5829 5825 5821 5817 5813 5809 5805 5801 5796 5792 5788 5783 5778 5773 5768 5763 5758 5754
5873 5874 5874 5875 5874 5874 5875 5875 5872 5871 5870 5868 5867 5865 5863 5861 5858 5856 5853 5850 5847 5844 5841 5838 5835 5831 5828 5825 5821 5817 5813 5809 5805 5801 5797 5793 5789 5784 5780 5775 5771 5766 5762 5757
5870 5871 5873 5871 5871 5871 5871 5870 5869 5868 5867 5865 5864 5862 5860 5858 5856 5853 5851 5848 5845 5842 5839 5836 5833 5830 5827 5823 5820 5816 5813 5809 5805 5801 5797 5794 5790 5786 5782 5777 5773 5769 5765 5761
5867 5869 5868 5867 5867 5867 5866 5866 5865 5864 5863 5862 5860 5858 5857 5855 5852 5850 5848 5845 5843 5840 5837 5834 5831 5828 5825 5822 5818 5815 5812 5808 5804 5801 5797 5793 5790 5786 5782 5778 5775 5771 5767 5763
5862 5862 5862 5862 5862 5862 5861 5861 5860 5859 5858 5857 5856 5854 5852 5851 5848 5846 5844 5841 5839 5836 5834 5831 5828 5825 5822 5819 5816 5813 5810 5806 5803 5799 5796 5793 5789 5786 5782 5779 5775 5772 5768 5764
5856 5857 5857 5857 5857 5857 5856 5856 5855 5854 5853 5852 5851 5849 5848 5846 5844 5842 5839 5837 5834 5832 5829 5827 5824 5821 5819 5816 5813 5810 5807 5803 5800 5797 5794 5791 5787 5784 5781 5778 5775 5772 5768 5765
5850 5851 5851 5851 5851 5851 5850 5850 5849 5849 5848 5846 5845 5843 5842 5840 5838 5836 5834 5832 5829 5826 5824 5821 5818 5816 5814 5811 5808 5805 5802 5799 5796 5794 5791 5788 5785 5782 5779 5776 5773 5770 5767 5764
5843 5844 5844 5844 5844 5844 5844 5843 5843 5842 5841 5840 5839 5837 5835 5834 5832 5830 5827 5825 5823 5820 5817 5815 5812 5810 5808 5805 5803 5800 5797 5794 5792 5789 5786 5784 5781 5778 5776 5773 5770 5767 5765 5762
5835 5836 5836 5837 5837 5836 5836 5836 5835 5834 5834 5832 5831 5830 5828 5826 5824 5822 5820 5817 5815 5812 5810 5807 5805 5802 5800 5798 5796 5793 5791 5788 5785 5783 5781 5778 5776 5773 5771 5768 5766 5763 5761 5758
5827 5828 5828 5828 5828 5828 5828 5828 5827 5826 5825 5824 5823 5822 5820 5818 5816 5814 5811 5809 5806 5804 5801 5799 5796 5794 5791 5789 5787 5785 5783 5780 5778 5776 5774 5771 5769 5767 5764 5762 5760 5758 5756 5754
5818 5819 5819 5819 5819 5819 5819 5819 5818 5817 5816 5815 5814 5812 5811 5809 5806 5804 5802 5799 5797 5794 5792 5789 5787 5784 5782 5780 5778 5776 5774 5771 5769 5767 5765 5763 5761 5759 5757 5755 5753 5751 5749 5748
5808 5809 5809 5809 5810 5809 5809 5808 5808 5807 5806 5805 5803 5802 5800 5798 5796 5794 5791 5789 5786 5784 5782 5779 5777 5774 5772 5770 5768 5766 5764 5761 5759 5757 5755 5753 5751 5749 5747 5746 5744 5743 5741 5739
5797 5798 5798 5799 5799 5798 5798 5797 5797 5796 5795 5793 5792 5790 5789 5787 5784 5782 5780 5778 5775 5773 5771 5769 5766 5764 5761 5759 5757 5754 5752 5750 5748 5746 5744 5742 5739 5738 5736 5735 5733 5732 5731 5730
5785 5786 5786 5786 5786 5786 5786 5786 5785 5784 5783 5782 5780 5779 5777 5775 5773 5770 5768 5766 5764 5761 5759 5757 5754 5752 5750 5747 5745 5742 5740 5738 5735 5733 5731 5729 5727 5725 5723 5722 5721 5719 5718 5717
5771 5772 5773 5773 5773 5774 5773 5773 5772 5771 5770 5769 5768 5766 5765 5763 5761 5759 5757 5755 5753 5750 5748 5745 5743 5740 5738 5735 5732 5730 5727 5725 5722 5720 5717 5715 5713 5711 5709 5707 5706 5705 5703 5703
5757 5758 5759 5759 5760 5760 5760 5759 5759 5758 5757 5756 5755 5754 5752 5751 5749 5747 5745 5743 5741 5739 5737 5734 5732 5729 5726 5723 5720 5717 5714 5711 5708 5705 5702 5700 5698 5695 5693 5691 5689 5688 5686 5686
5743 5744 5745 5745 5746 5746 5746 5746 5746 5745 5744 5743 5742 5741 5739 5738 5737 5735 5733 5731 5729 5727 5724 5722 5719 5716 5713 5710 5706 5703 5699 5696 5693 5689 5686 5683 5680 5678 5675 5673 5670 5668 5667 5666
5728 5729 5730 5731 5732 5732 5732 5732 5732 5732 5731 5730 5729 5728 5727 5726 5724 5723 5721 5719 5716 5714 5711 5708 5705 5702 5699 5695 5691 5688 5684 5680 5676 5672 5668 5665 5661 5658 5655 5652 5649 5647 5645 5644
5713 5714 5715 5716 5717 5718 5718 5718 5718 5718 5718 5717 5716 5715 5714 5713 5712 5710 5708 5706 5703 5700 5697 5694 5691 5687 5683 5679 5675 5671 5666 5662 5658 5653 5649 5645 5640 5636 5632 5629 5626 5623 5621 5619
5697 5699 5701 5702 5703 5704 5705 5705 5705 5705 5704 5704 5703 5702 5701 5700 5699 5697 5695 5692 5690 5686 5683 5679 5676 5672 5667 5663 5658 5653 5648 5643 5638 5633 5628 5623 5618 5613 5609 5605 5601 5598 5595 5593
5683 5684 5686 5688 5689 5690 5691 5691 5691 5691 5691 5691 5690 5689 5689 5687 5686 5684 5681 5678 5675 5671 5668 5664 5660 5655 5650 5645 5640 5634 5629 5623 5618 5612 5606 5600 5595 5590 5584 5580 5575 5571 5568 5565
5668 5670 5672 5673 5675 5676 5677 5678 5678 5678 5678 5678 5677 5676 5675 5674 5672 5669 5666 5663 5660 5656 5652 5648 5643 5638 5633 5627 5622 5616 5610 5604 5597 5591 5585 5579 5573 5567 5561 5556 5550 5546 5542 5538